Zurück zum Katalog

FENGYUN 1C DEB

LostPO
NORAD 37080·DEBRIS·🇨🇳 China

Gestartet May 10, 1999 von Taiyuan Satellite Launch Center

Loading…

Nächste Überflüge (nächste 24 Stunden)

TLE

VeraltetSource: Space-Track

Epoche: Oct 21, 2022, 13:45 UTC

1 37080U 99025EFQ 22294.57327019  .00004643  00000-0  25234-2 0  9991
2 37080  98.1635  62.0622 0167575 139.4318 221.9483 14.05794091716834

Verfolge FENGYUN 1C DEB in Echtzeit mit AllMySat

Download on the App Store